François Lagadeuc

François Lagadeuc

Statistiques 2026

  • Courses courues : 319
  • Nb de victoires : 46
  • Nb de places : 87
  • Écart gagnant : 13
  • Réussite à la gagne : 14%
  • Réussite à la place : 27%
Musique : 5m 4a 0m 0a 0a Da Da Da 5a 2a 3a 2a 8a 1a 8a 1a 5m Da
DateRangCatégorieAlloc.Dist.HippodromeChevalRed. KmSpé.
15/05/21 D Trot 13 000€ 2 750m Elbeuf Goliath de Lair Attelé
15/05/21 1 Trot 13 000€ 2 775m Elbeuf Gipsy Bond Attelé
15/05/21 1 Trot 13 000€ 2 750m Elbeuf Go Chicago TNC Attelé
14/05/21 1 Trot 38 000€ 2 700m Vincennes Izoard Dairpet 1'15"9 Monté
14/05/21 8 Trot 42 000€ 2 850m Vincennes Elan des Iles 1'15"7 Attelé lire

Rapidement bien placé, a progressivement concédé du terrain et n'a plus été menaçant.

14/05/21 5 Trot 58 000€ 2 100m Vincennes Eire d'helios 1'11"6 Attelé lire

Après avoir figuré au sein du peloton, a conclu convenablement.

14/05/21 0 Trot 33 000€ 2 100m Vincennes Helium Attelé
14/05/21 4 Trot 33 000€ 2 175m Vincennes Houmana 1'12"9 Monté
13/05/21 1 Trot 13 000€ 2 500m Valognes Faustine Nay Attelé
13/05/21 4 Trot 17 000€ 2 500m Valognes Easy de Carsi Attelé
13/05/21 0 Trot 13 000€ 2 525m Valognes Gazelle Danica Attelé
13/05/21 1 Trot 11 000€ 2 500m Valognes Himoka Attelé
13/05/21 D Trot 11 000€ 2 500m Valognes Ivan du Clos Attelé
13/05/21 5 Trot 13 000€ 2 500m Valognes Good Bye Angot Monté
12/05/21 2 Trot 23 000€ 2 800m Chartres Daiquiri 1'15"9 Attelé
12/05/21 5 Trot 17 000€ 2 800m Chartres Hermes du Pressoir 1'16"9 Attelé
12/05/21 2 Trot 23 000€ 2 800m Chartres Du Scion 1'15"1 Monté
12/05/21 1 Trot 19 000€ 2 825m Chartres Fakir du Bourg 1'15"8 Monté
10/05/21 8 Trot 18 000€ 2 450m Caen Honey Quick 1'14"6 Attelé
10/05/21 D Trot 18 000€ 2 450m Caen Heroine Quick Attelé
10/05/21 D Trot 18 000€ 2 450m Caen Harmony Quick Monté
09/05/21 D Trot 58 000€ 2 700m Vincennes Cadel de Cahot Attelé lire

Jamais en course, a été sanctionné au sommet de la montée.

09/05/21 3 Trot 70 000€ 2 850m Vincennes Beautiful Colibri 1'14"3 Attelé
08/05/21 2 Trot 13 000€ 2 700m Graignes Iberik de Mongochy 1'17"2 Attelé
08/05/21 D Trot 19 000€ 2 700m Graignes Enjolras Attelé
08/05/21 D Trot 13 000€ 2 700m Graignes Haiku du Vivier Attelé
08/05/21 4 Trot 19 000€ 2 725m Graignes Gladys du Cedre 1'14"6 Monté
08/05/21 4 Trot 13 000€ 2 675m Le Mont Saint Michel Helia de Bree 1'16"5 Attelé
08/05/21 3 Trot 22 000€ 2 700m Le Mont Saint Michel Eagle Wind 1'15"4 Attelé
08/05/21 6 Trot 15 000€ 2 675m Le Mont Saint Michel Grenada Yamm 1'18"1 Attelé
08/05/21 4 Trot 15 000€ 2 675m Le Mont Saint Michel Gillespie 1'16"0 Attelé
08/05/21 D Trot 19 000€ 2 675m Le Mont Saint Michel Fellavista Monté
08/05/21 6 Trot 15 000€ 2 675m Le Mont Saint Michel Foxy Lady Yankee 1'16"1 Attelé
08/05/21 3 Trot 13 000€ 2 675m Le Mont Saint Michel Iniades 1'18"1 Attelé
08/05/21 8 Trot 13 000€ 2 675m Le Mont Saint Michel Imperiale du Mont 1'18"9 Attelé
07/05/21 1 Trot 31 000€ 2 850m Laval Enzo d'Essarts 1'14"9 Attelé
07/05/21 5 Trot 27 000€ 2 850m Laval Effet 1'14"7 Monté
07/05/21 3 Trot 20 000€ 2 850m Laval Galehaut America 1'14"7 Attelé
05/05/21 1 Trot 30 000€ 2 875m Maure De Bretagne Copsi 1'13"3 Attelé
05/05/21 6 Trot 22 000€ 2 850m Maure De Bretagne Fleur de Vanille 1'15"7 Attelé
05/05/21 D Trot 17 000€ 2 850m Maure De Bretagne Incantator Attelé
05/05/21 5 Trot 19 000€ 2 850m Maure De Bretagne Galilea Celo 1'16"0 Attelé
05/05/21 8 Trot 17 000€ 2 875m Maure De Bretagne Efaro 1'16"2 Monté
04/05/21 5 Trot 33 000€ 2 175m Vincennes Ivan du Clos 1'17"6 Monté
04/05/21 7 Trot 18 000€ 2 700m Vincennes Dragueur d'Azur 1'14"1 Attelé
04/05/21 6 Trot 100 000€ 2 175m Vincennes Hector des Champs 1'12"9 Monté
04/05/21 4 Trot 33 000€ 2 700m Vincennes Huppercut de Joux 1'13"9 Attelé
03/05/21 2 Trot 28 000€ 2 150m Vichy Forbach 1'14"5 Attelé lire

Principal animateur, a été débordé dans les cent derniers mètres.

03/05/21 6 Trot 22 000€ 2 800m Vichy Fokker de Bailly 1'14"3 Attelé lire

Après avoir assuré sa mise en jambes, a progressé au dernier passage en face puis a longtemps fait illusion pour un accessit avant de faiblir pour finir.

01/05/21 D Trot 15 000€ 2 700m Graignes Izalia d'Alfix Attelé